| time (UTC) | temp F | wind direction | speed MPH | gust MPH | rain 1hr in | rain 24hr in | rain mn in | humidity % | barometer mb |
| 20260510160457 | 85 | 30 | 3.0 | 4.0 | 0.00 | 0.00 | 0.00 | 72 | 347.7 |
| 20260510155954 | 84 | 47 | 5.0 | 6.0 | 0.00 | 0.00 | 0.00 | 74 | 347.6 |
| 20260510155452 | 85 | 288 | 2.0 | 4.0 | 0.00 | 0.00 | 0.00 | 74 | 347.7 |
| 20260510154949 | 84 | 51 | 2.0 | 3.0 | 0.00 | 0.00 | 0.00 | 75 | 347.7 |
| 20260510154444 | 84 | 22 | 2.0 | 4.0 | 0.00 | 0.00 | 0.00 | 77 | 348.0 |
| 20260510153943 | 84 | 64 | 1.0 | 4.0 | 0.00 | 0.00 | 0.00 | 77 | 347.7 |
| 20260510153440 | 84 | 314 | 2.0 | 6.0 | 0.00 | 0.00 | 0.00 | 78 | 347.7 |
| 20260510152937 | 83 | 343 | 3.0 | 4.0 | 0.00 | 0.00 | 0.00 | 78 | 347.7 |
| 20260510152435 | 83 | 346 | 3.0 | 4.0 | 0.00 | 0.00 | 0.00 | 79 | 347.9 |
| 20260510151930 | 82 | 61 | 1.0 | 4.0 | 0.00 | 0.00 | 0.00 | 80 | 347.7 |
| 20260510151428 | 82 | 250 | 3.0 | 5.0 | 0.00 | 0.00 | 0.00 | 80 | 347.9 |
| 20260510150924 | 82 | 267 | 4.0 | 4.0 | 0.00 | 0.00 | 0.00 | 81 | 347.9 |
| 20260510150420 | 82 | 309 | 1.0 | 5.0 | 0.00 | 0.00 | 0.00 | 82 | 347.9 |
| 20260510145916 | 82 | 57 | 2.0 | 4.0 | 0.00 | 0.00 | 0.00 | 84 | 347.9 |
| 20260510145413 | 81 | 352 | 1.0 | 2.0 | 0.00 | 0.00 | 0.00 | 84 | 347.9 |
| 20260510144910 | 81 | 335 | 2.0 | 5.0 | 0.00 | 0.00 | 0.00 | 85 | 347.9 |
| 20260510144407 | 81 | 300 | 5.0 | 6.0 | 0.00 | 0.00 | 0.00 | 85 | 347.7 |
| 20260510143907 | 81 | 326 | 3.0 | 7.0 | 0.00 | 0.00 | 0.00 | 86 | 347.8 |
| 20260510143403 | 80 | 303 | 4.0 | 5.0 | 0.00 | 0.00 | 0.00 | 87 | 347.9 |
| 20260510142900 | 80 | 279 | 3.0 | 5.0 | 0.00 | 0.00 | 0.00 | 87 | 347.9 |
| 20260510142356 | 81 | 294 | 3.0 | 3.0 | 0.00 | 0.00 | 0.00 | 88 | 348.1 |
| 20260510141853 | 80 | 306 | 1.0 | 4.0 | 0.00 | 0.00 | 0.00 | 89 | 348.0 |
| 20260510141351 | 80 | 331 | 2.0 | 5.0 | 0.00 | 0.00 | 0.00 | 89 | 348.0 |
| 20260510140848 | 79 | 0 | 2.0 | 4.0 | 0.00 | 0.00 | 0.00 | 91 | 348.0 |
| 20260510140344 | 79 | 291 | 3.0 | 4.0 | 0.00 | 0.00 | 0.00 | 91 | 348.0 |
| 20260510135843 | 79 | 318 | 2.0 | 7.0 | 0.00 | 0.00 | 0.00 | 91 | 348.0 |
| 20260510135339 | 78 | 299 | 2.0 | 3.0 | 0.00 | 0.00 | 0.00 | 93 | 348.0 |
| 20260510134837 | 78 | 275 | 1.0 | 5.0 | 0.00 | 0.00 | 0.00 | 93 | 348.0 |
| 20260510134333 | 78 | 314 | 1.0 | 5.0 | 0.00 | 0.00 | 0.00 | 93 | 348.1 |
| 20260510133829 | 77 | 302 | 2.0 | 4.0 | 0.00 | 0.00 | 0.00 | 94 | 348.2 |
| 20260510133325 | 77 | 349 | 0.0 | 5.0 | 0.00 | 0.00 | 0.00 | 94 | 348.1 |
| 20260510132821 | 77 | 350 | 2.0 | 6.0 | 0.00 | 0.00 | 0.00 | 95 | 348.0 |
| 20260510132319 | 77 | 315 | 2.0 | 4.0 | 0.00 | 0.00 | 0.00 | 95 | 348.1 |
| 20260510131816 | 76 | 285 | 3.0 | 3.0 | 0.00 | 0.00 | 0.00 | 95 | 348.2 |
| 20260510131314 | 76 | 10 | 2.0 | 3.0 | 0.00 | 0.00 | 0.00 | 96 | 348.0 |
| 20260510130810 | 76 | 320 | 0.0 | 3.0 | 0.00 | 0.00 | 0.00 | 96 | 348.0 |
| 20260510130307 | 76 | 238 | 3.0 | 4.0 | 0.00 | 0.00 | 0.00 | 96 | 348.1 |
| 20260510125803 | 76 | 43 | 1.0 | 3.0 | 0.00 | 0.00 | 0.00 | 96 | 348.0 |
| 20260510125259 | 75 | 258 | 2.0 | 4.0 | 0.00 | 0.00 | 0.00 | 96 | 348.1 |
| 20260510124756 | 75 | 293 | 2.0 | 3.0 | 0.00 | 0.00 | 0.00 | 96 | 348.1 |
| 20260510124254 | 75 | 301 | 3.0 | 4.0 | 0.00 | 0.00 | 0.00 | 96 | 348.1 |
| 20260510123749 | 75 | 301 | 3.0 | 4.0 | 0.00 | 0.00 | 0.00 | 96 | 348.1 |
| 20260510123245 | 75 | 333 | 1.0 | 4.0 | 0.00 | 0.00 | 0.00 | 96 | 348.2 |
| 20260510122742 | 75 | 265 | 2.0 | 4.0 | 0.00 | 0.00 | 0.00 | 96 | 347.9 |
| 20260510122238 | 75 | 265 | 2.0 | 4.0 | 0.00 | 0.00 | 0.00 | 96 | 348.1 |
| 20260510121734 | 75 | 286 | 3.0 | 4.0 | 0.00 | 0.00 | 0.00 | 96 | 348.1 |
| 20260510121232 | 74 | 306 | 0.0 | 4.0 | 0.00 | 0.00 | 0.00 | 96 | 347.9 |
| 20260510120729 | 74 | 264 | 2.0 | 3.0 | 0.00 | 0.00 | 0.00 | 96 | 348.1 |
| 20260510120226 | 74 | 300 | 2.0 | 2.0 | 0.00 | 0.00 | 0.00 | 96 | 348.1 |
| 20260510115721 | 74 | 319 | 1.0 | 2.0 | 0.00 | 0.00 | 0.00 | 96 | 348.1 |
| 20260510115220 | 74 | 263 | 1.0 | 4.0 | 0.00 | 0.00 | 0.00 | 96 | 348.1 |
| 20260510114714 | 74 | 118 | 1.0 | 2.0 | 0.00 | 0.00 | 0.00 | 96 | 348.1 |
| 20260510114212 | 74 | 71 | 0.0 | 2.0 | 0.00 | 0.00 | 0.00 | 96 | 348.2 |
| 20260510113707 | 74 | 74 | 1.0 | 2.0 | 0.00 | 0.00 | 0.00 | 96 | 348.3 |
| 20260510113204 | 73 | 84 | 2.0 | 2.0 | 0.00 | 0.00 | 0.00 | 96 | 348.3 |
| 20260510112700 | 73 | 55 | 1.0 | 3.0 | 0.00 | 0.00 | 0.00 | 96 | 348.2 |
| 20260510112158 | 73 | 95 | 2.0 | 3.0 | 0.00 | 0.00 | 0.00 | 96 | 348.3 |
| 20260510111653 | 73 | 57 | 1.0 | 2.0 | 0.00 | 0.00 | 0.00 | 96 | 348.3 |
| 20260510111151 | 73 | 86 | 2.0 | 2.0 | 0.00 | 0.00 | 0.00 | 96 | 348.3 |
| 20260510110645 | 73 | 129 | 0.0 | 2.0 | 0.00 | 0.00 | 0.00 | 96 | 348.1 |
| 20260510110143 | 73 | 100 | 1.0 | 3.0 | 0.00 | 0.00 | 0.00 | 96 | 348.1 |
| 20260510105638 | 73 | 53 | 2.0 | 3.0 | 0.00 | 0.00 | 0.00 | 96 | 348.1 |
| 20260510105138 | 73 | 54 | 1.0 | 2.0 | 0.00 | 0.00 | 0.00 | 96 | 348.1 |
| 20260510104635 | 73 | 75 | 0.0 | 2.0 | 0.00 | 0.00 | 0.00 | 96 | 348.1 |
| 20260510104132 | 73 | 89 | 0.0 | 1.0 | 0.00 | 0.00 | 0.00 | 96 | 348.2 |
| 20260510103628 | 73 | 119 | 1.0 | 1.0 | 0.00 | 0.00 | 0.00 | 96 | 348.2 |
| 20260510103124 | 73 | 97 | 1.0 | 2.0 | 0.00 | 0.00 | 0.00 | 96 | 348.2 |
| 20260510102620 | 73 | 94 | 1.0 | 2.0 | 0.00 | 0.00 | 0.00 | 96 | 348.3 |
| 20260510102116 | 73 | 111 | 2.0 | 2.0 | 0.00 | 0.00 | 0.00 | 96 | 348.2 |
| 20260510101614 | 73 | 100 | 1.0 | 2.0 | 0.00 | 0.00 | 0.00 | 96 | 348.2 |
| 20260510101112 | 73 | 57 | 1.0 | 2.0 | 0.00 | 0.00 | 0.00 | 96 | 348.2 |
| 20260510100608 | 73 | 284 | 0.0 | 2.0 | 0.00 | 0.00 | 0.00 | 96 | 348.2 |
| 20260510100106 | 73 | 174 | 0.0 | 2.0 | 0.00 | 0.00 | 0.00 | 96 | 348.2 |
| 20260510095601 | 73 | 28 | 0.0 | 2.0 | 0.00 | 0.00 | 0.00 | 96 | 348.2 |
| 20260510095102 | 73 | 28 | 0.0 | 1.0 | 0.00 | 0.00 | 0.00 | 96 | 348.3 |
| 20260510094601 | 73 | 94 | 1.0 | 2.0 | 0.00 | 0.00 | 0.00 | 96 | 348.4 |
| 20260510094056 | 73 | 44 | 0.0 | 1.0 | 0.00 | 0.00 | 0.00 | 95 | 348.2 |
| 20260510093553 | 74 | 60 | 0.0 | 1.0 | 0.00 | 0.00 | 0.00 | 95 | 348.2 |
| 20260510093050 | 74 | 66 | 0.0 | 2.0 | 0.00 | 0.00 | 0.00 | 95 | 348.2 |
| 20260510092547 | 74 | 89 | 1.0 | 2.0 | 0.00 | 0.00 | 0.00 | 95 | 348.2 |
| 20260510092046 | 74 | 48 | 0.0 | 2.0 | 0.00 | 0.00 | 0.00 | 95 | 348.2 |
| 20260510091543 | 74 | 79 | 1.0 | 2.0 | 0.00 | 0.00 | 0.00 | 95 | 348.1 |
| 20260510091039 | 74 | 82 | 2.0 | 2.0 | 0.00 | 0.00 | 0.00 | 95 | 348.2 |
| 20260510090536 | 74 | 82 | 1.0 | 3.0 | 0.00 | 0.00 | 0.00 | 95 | 348.1 |
| 20260510090032 | 74 | 96 | 2.0 | 3.0 | 0.00 | 0.00 | 0.00 | 95 | 348.2 |
| 20260510085532 | 74 | 111 | 0.0 | 2.0 | 0.00 | 0.00 | 0.00 | 95 | 348.1 |
| 20260510085029 | 74 | 95 | 2.0 | 2.0 | 0.00 | 0.00 | 0.00 | 95 | 348.0 |
| 20260510084526 | 74 | 56 | 2.0 | 3.0 | 0.00 | 0.00 | 0.00 | 95 | 348.1 |
| 20260510084022 | 74 | 106 | 1.0 | 2.0 | 0.00 | 0.00 | 0.00 | 95 | 348.1 |
| 20260510083519 | 74 | 122 | 2.0 | 3.0 | 0.00 | 0.00 | 0.00 | 95 | 348.1 |
| 20260510083015 | 74 | 152 | 1.0 | 4.0 | 0.00 | 0.00 | 0.00 | 95 | 348.3 |
| 20260510082512 | 74 | 82 | 2.0 | 4.0 | 0.00 | 0.00 | 0.00 | 95 | 348.2 |
| 20260510082012 | 74 | 127 | 2.0 | 4.0 | 0.00 | 0.00 | 0.00 | 95 | 348.4 |
| 20260510081508 | 74 | 134 | 2.0 | 4.0 | 0.00 | 0.00 | 0.00 | 95 | 348.2 |
| 20260510081003 | 74 | 139 | 3.0 | 6.0 | 0.00 | 0.00 | 0.00 | 95 | 348.2 |
| 20260510080502 | 74 | 120 | 4.0 | 5.0 | 0.00 | 0.00 | 0.00 | 95 | 348.3 |
| 20260510075959 | 74 | 84 | 2.0 | 5.0 | 0.00 | 0.00 | 0.00 | 95 | 348.4 |
| 20260510075457 | 74 | 110 | 2.0 | 4.0 | 0.00 | 0.00 | 0.00 | 95 | 348.2 |
| 20260510074954 | 74 | 126 | 0.0 | 5.0 | 0.00 | 0.00 | 0.00 | 95 | 348.1 |
| 20260510074451 | 74 | 94 | 3.0 | 3.0 | 0.00 | 0.00 | 0.00 | 95 | 348.3 |
| 20260510073947 | 74 | 115 | 2.0 | 3.0 | 0.00 | 0.00 | 0.00 | 95 | 348.3 |
| 20260510073442 | 74 | 97 | 3.0 | 3.0 | 0.00 | 0.00 | 0.00 | 95 | 348.1 |
| 20260510072939 | 74 | 96 | 3.0 | 4.0 | 0.00 | 0.00 | 0.00 | 95 | 348.2 |
| 20260510072437 | 74 | 76 | 2.0 | 3.0 | 0.00 | 0.00 | 0.00 | 95 | 348.2 |
| 20260510071932 | 74 | 106 | 1.0 | 4.0 | 0.00 | 0.00 | 0.00 | 95 | 348.2 |
| 20260510071429 | 74 | 96 | 2.0 | 3.0 | 0.00 | 0.00 | 0.00 | 95 | 348.2 |
| 20260510070927 | 74 | 97 | 2.0 | 3.0 | 0.00 | 0.00 | 0.00 | 94 | 348.2 |
| 20260510070424 | 74 | 84 | 2.0 | 3.0 | 0.00 | 0.00 | 0.00 | 95 | 348.0 |
| 20260510065919 | 74 | 97 | 2.0 | 3.0 | 0.00 | 0.00 | 0.00 | 95 | 348.1 |
| 20260510065416 | 74 | 114 | 3.0 | 4.0 | 0.00 | 0.00 | 0.00 | 94 | 348.3 |
| 20260510064912 | 74 | 84 | 2.0 | 3.0 | 0.00 | 0.00 | 0.00 | 94 | 348.1 |
| 20260510064411 | 74 | 118 | 3.0 | 4.0 | 0.00 | 0.00 | 0.00 | 94 | 348.1 |
| 20260510063907 | 74 | 95 | 3.0 | 4.0 | 0.00 | 0.00 | 0.00 | 94 | 348.2 |
| 20260510063403 | 74 | 87 | 1.0 | 2.0 | 0.00 | 0.00 | 0.00 | 94 | 348.2 |
| 20260510062901 | 74 | 82 | 2.0 | 4.0 | 0.00 | 0.00 | 0.00 | 94 | 348.2 |
| 20260510062355 | 74 | 88 | 2.0 | 3.0 | 0.00 | 0.00 | 0.00 | 94 | 348.1 |
| 20260510061851 | 74 | 84 | 2.0 | 3.0 | 0.00 | 0.00 | 0.00 | 94 | 348.3 |
| 20260510061348 | 74 | 116 | 2.0 | 4.0 | 0.00 | 0.00 | 0.00 | 94 | 348.2 |
| 20260510060844 | 74 | 69 | 1.0 | 2.0 | 0.00 | 0.00 | 0.00 | 94 | 348.2 |
| 20260510060341 | 74 | 102 | 2.0 | 3.0 | 0.00 | 0.00 | 0.00 | 94 | 348.2 |
| 20260510055838 | 74 | 135 | 0.0 | 2.0 | 0.00 | 0.00 | 0.00 | 94 | 348.2 |
| 20260510055337 | 74 | 95 | 3.0 | 4.0 | 0.00 | 0.00 | 0.00 | 94 | 348.1 |
| 20260510054836 | 74 | 101 | 2.0 | 2.0 | 0.00 | 0.00 | 0.00 | 94 | 348.1 |
| 20260510054332 | 74 | 249 | 1.0 | 2.0 | 0.00 | 0.00 | 0.00 | 94 | 348.0 |
| 20260510053827 | 74 | 94 | 2.0 | 2.0 | 0.00 | 0.00 | 0.00 | 94 | 348.2 |
| 20260510053323 | 74 | 101 | 1.0 | 2.0 | 0.00 | 0.00 | 0.00 | 94 | 348.1 |
| 20260510052819 | 74 | 103 | 1.0 | 2.0 | 0.00 | 0.00 | 0.00 | 94 | 348.2 |
| 20260510052315 | 74 | 81 | 2.0 | 3.0 | 0.00 | 0.00 | 0.00 | 94 | 348.2 |
| 20260510051811 | 74 | 66 | 0.0 | 2.0 | 0.00 | 0.00 | 0.00 | 94 | 348.2 |
| 20260510051308 | 74 | 104 | 0.0 | 2.0 | 0.00 | 0.00 | 0.00 | 94 | 348.2 |
| 20260510050806 | 74 | 62 | 2.0 | 2.0 | 0.00 | 0.00 | 0.00 | 93 | 348.0 |
| 20260510050302 | 74 | 224 | 1.0 | 2.0 | 0.00 | 0.00 | 0.00 | 93 | 348.1 |
| 20260510045759 | 74 | 300 | 2.0 | 2.0 | 0.00 | 0.00 | 0.00 | 93 | 348.2 |
| 20260510045255 | 74 | 106 | 2.0 | 2.0 | 0.00 | 0.00 | 0.00 | 93 | 348.1 |
| 20260510044753 | 74 | 323 | 0.0 | 2.0 | 0.00 | 0.00 | 0.00 | 93 | 348.3 |
| 20260510044250 | 74 | 333 | 1.0 | 2.0 | 0.00 | 0.00 | 0.00 | 93 | 348.2 |
| 20260510043746 | 74 | 114 | 4.0 | 4.0 | 0.00 | 0.00 | 0.00 | 93 | 348.2 |
| 20260510043242 | 74 | 210 | 1.0 | 2.0 | 0.00 | 0.00 | 0.00 | 93 | 348.2 |
| 20260510042740 | 74 | 92 | 2.0 | 3.0 | 0.00 | 0.00 | 0.00 | 93 | 348.1 |
| 20260510042235 | 74 | 74 | 2.0 | 3.0 | 0.00 | 0.00 | 0.00 | 92 | 348.1 |
| 20260510041732 | 74 | 84 | 2.0 | 2.0 | 0.00 | 0.00 | 0.00 | 92 | 348.1 |
| 20260510041230 | 74 | 89 | 2.0 | 2.0 | 0.00 | 0.00 | 0.00 | 92 | 348.2 |
| 20260510040727 | 74 | 103 | 1.0 | 2.0 | 0.00 | 0.00 | 0.00 | 92 | 348.2 |
| 20260510040224 | 74 | 109 | 1.0 | 2.0 | 0.00 | 0.00 | 0.00 | 92 | 348.3 |
| 20260510035719 | 75 | 98 | 1.0 | 2.0 | 0.00 | 0.09 | 0.09 | 92 | 348.0 |
| 20260510035215 | 75 | 108 | 1.0 | 2.0 | 0.00 | 0.09 | 0.09 | 91 | 348.1 |
| 20260510034711 | 75 | 80 | 2.0 | 2.0 | 0.00 | 0.09 | 0.09 | 91 | 348.1 |
| 20260510034209 | 75 | 89 | 0.0 | 2.0 | 0.00 | 0.09 | 0.09 | 91 | 348.2 |
| 20260510033705 | 75 | 102 | 2.0 | 2.0 | 0.00 | 0.09 | 0.09 | 91 | 348.3 |
| 20260510033203 | 75 | 102 | 1.0 | 2.0 | 0.00 | 0.09 | 0.09 | 91 | 348.2 |
| 20260510032659 | 75 | 92 | 2.0 | 3.0 | 0.00 | 0.09 | 0.09 | 91 | 348.1 |
| 20260510032154 | 75 | 86 | 2.0 | 4.0 | 0.00 | 0.09 | 0.09 | 91 | 348.1 |
| 20260510031649 | 76 | 92 | 3.0 | 6.0 | 0.00 | 0.09 | 0.09 | 91 | 348.2 |
| 20260510031147 | 76 | 95 | 1.0 | 7.0 | 0.00 | 0.09 | 0.09 | 91 | 348.1 |
| 20260510030646 | 76 | 137 | 6.0 | 7.0 | 0.00 | 0.09 | 0.09 | 91 | 348.1 |
| 20260510030144 | 76 | 129 | 7.0 | 9.0 | 0.00 | 0.09 | 0.09 | 91 | 348.1 |
| 20260510025641 | 76 | 141 | 7.0 | 10.0 | 0.00 | 0.09 | 0.09 | 91 | 348.2 |
| 20260510025138 | 76 | 127 | 5.0 | 7.0 | 0.00 | 0.09 | 0.09 | 91 | 348.1 |
| 20260510024635 | 75 | 137 | 7.0 | 7.0 | 0.00 | 0.09 | 0.09 | 91 | 348.1 |
| 20260510024132 | 76 | 131 | 8.0 | 9.0 | 0.00 | 0.09 | 0.09 | 92 | 348.0 |
| 20260510023627 | 75 | 133 | 7.0 | 9.0 | 0.00 | 0.09 | 0.09 | 92 | 348.2 |
| 20260510023125 | 75 | 131 | 9.0 | 11.0 | 0.00 | 0.09 | 0.09 | 91 | 348.0 |
| 20260510022625 | 75 | 118 | 6.0 | 9.0 | 0.00 | 0.09 | 0.09 | 92 | 348.0 |
| 20260510022120 | 75 | 108 | 3.0 | 3.0 | 0.00 | 0.09 | 0.09 | 92 | 348.1 |
| 20260510021616 | 75 | 120 | 5.0 | 8.0 | 0.00 | 0.09 | 0.09 | 92 | 348.2 |
| 20260510021114 | 75 | 118 | 6.0 | 7.0 | 0.00 | 0.09 | 0.09 | 92 | 348.1 |
| 20260510020613 | 75 | 113 | 6.0 | 8.0 | 0.00 | 0.09 | 0.09 | 92 | 348.1 |
| 20260510020109 | 75 | 125 | 7.0 | 9.0 | 0.00 | 0.09 | 0.09 | 92 | 348.1 |
| 20260510015605 | 75 | 114 | 5.0 | 7.0 | 0.00 | 0.09 | 0.09 | 92 | 348.2 |
| 20260510015102 | 75 | 107 | 9.0 | 10.0 | 0.00 | 0.09 | 0.09 | 92 | 348.1 |
| 20260510014558 | 75 | 117 | 6.0 | 7.0 | 0.00 | 0.09 | 0.09 | 92 | 348.0 |
| 20260510014056 | 75 | 115 | 6.0 | 8.0 | 0.00 | 0.09 | 0.09 | 92 | 348.1 |
| 20260510013556 | 75 | 101 | 7.0 | 9.0 | 0.00 | 0.09 | 0.09 | 92 | 348.0 |
| 20260510013052 | 75 | 96 | 6.0 | 6.0 | 0.00 | 0.09 | 0.09 | 92 | 348.2 |
| 20260510012551 | 75 | 106 | 6.0 | 7.0 | 0.00 | 0.09 | 0.09 | 92 | 348.1 |
| 20260510012048 | 75 | 93 | 4.0 | 4.0 | 0.00 | 0.09 | 0.09 | 92 | 348.0 |
| 20260510011547 | 75 | 108 | 3.0 | 4.0 | 0.00 | 0.09 | 0.09 | 92 | 348.1 |
| 20260510011043 | 75 | 116 | 4.0 | 4.0 | 0.00 | 0.09 | 0.09 | 92 | 348.0 |
| 20260510010540 | 75 | 101 | 3.0 | 3.0 | 0.00 | 0.09 | 0.09 | 92 | 347.9 |
| 20260510010037 | 75 | 120 | 4.0 | 5.0 | 0.00 | 0.09 | 0.09 | 92 | 348.1 |
| 20260510005533 | 75 | 99 | 3.0 | 3.0 | 0.00 | 0.09 | 0.09 | 91 | 348.3 |
| 20260510005031 | 75 | 107 | 4.0 | 4.0 | 0.00 | 0.09 | 0.09 | 91 | 348.2 |
| 20260510004528 | 75 | 106 | 2.0 | 4.0 | 0.00 | 0.09 | 0.09 | 91 | 348.0 |
| 20260510004026 | 75 | 9 | 1.0 | 5.0 | 0.00 | 0.09 | 0.09 | 91 | 348.0 |
| 20260510003523 | 75 | 75 | 3.0 | 4.0 | 0.00 | 0.09 | 0.09 | 91 | 348.1 |
| 20260510003018 | 75 | 64 | 3.0 | 6.0 | 0.00 | 0.09 | 0.09 | 91 | 348.1 |
| 20260510002514 | 75 | 64 | 4.0 | 6.0 | 0.00 | 0.09 | 0.09 | 91 | 348.1 |
| 20260510002011 | 75 | 66 | 3.0 | 5.0 | 0.00 | 0.09 | 0.09 | 91 | 348.2 |
| 20260510001508 | 75 | 102 | 2.0 | 6.0 | 0.00 | 0.09 | 0.09 | 91 | 348.0 |
| 20260510001006 | 75 | 68 | 4.0 | 5.0 | 0.00 | 0.09 | 0.09 | 91 | 348.0 |
| 20260510000501 | 75 | 72 | 4.0 | 5.0 | 0.00 | 0.09 | 0.09 | 91 | 348.2 |
| 20260509235958 | 76 | 63 | 4.0 | 6.0 | 0.00 | 0.09 | 0.09 | 91 | 348.1 |
| 20260509235455 | 76 | 88 | 2.0 | 5.0 | 0.00 | 0.09 | 0.09 | 91 | 348.1 |
| 20260509234951 | 76 | 68 | 4.0 | 4.0 | 0.00 | 0.09 | 0.09 | 91 | 348.1 |
| 20260509234448 | 76 | 95 | 3.0 | 5.0 | 0.00 | 0.09 | 0.09 | 91 | 348.0 |
| 20260509233946 | 76 | 71 | 3.0 | 4.0 | 0.00 | 0.09 | 0.09 | 91 | 348.1 |
| 20260509233443 | 76 | 54 | 5.0 | 6.0 | 0.00 | 0.09 | 0.09 | 91 | 348.0 |
| 20260509232939 | 76 | 69 | 3.0 | 4.0 | 0.00 | 0.09 | 0.09 | 91 | 348.1 |
| 20260509232437 | 76 | 68 | 4.0 | 8.0 | 0.00 | 0.09 | 0.09 | 91 | 348.1 |
| 20260509231932 | 76 | 71 | 4.0 | 6.0 | 0.00 | 0.09 | 0.09 | 91 | 348.2 |
| 20260509231430 | 75 | 57 | 5.0 | 8.0 | 0.00 | 0.09 | 0.09 | 90 | 348.2 |
| 20260509230928 | 75 | 63 | 4.0 | 5.0 | 0.00 | 0.09 | 0.09 | 91 | 348.1 |
| 20260509230424 | 75 | 43 | 3.0 | 8.0 | 0.00 | 0.09 | 0.09 | 90 | 348.0 |
| 20260509225920 | 75 | 59 | 3.0 | 6.0 | 0.00 | 0.09 | 0.09 | 90 | 348.0 |
| 20260509225417 | 75 | 31 | 7.0 | 8.0 | 0.00 | 0.09 | 0.09 | 90 | 348.1 |
| 20260509224913 | 76 | 82 | 3.0 | 7.0 | 0.00 | 0.09 | 0.09 | 90 | 347.9 |
| 20260509224414 | 75 | 51 | 5.0 | 6.0 | 0.00 | 0.09 | 0.09 | 90 | 348.0 |
| 20260509223911 | 75 | 73 | 4.0 | 6.0 | 0.00 | 0.09 | 0.09 | 90 | 348.1 |
| 20260509223408 | 76 | 65 | 3.0 | 8.0 | 0.00 | 0.09 | 0.09 | 91 | 348.1 |
| 20260509222905 | 76 | 73 | 4.0 | 6.0 | 0.00 | 0.09 | 0.09 | 91 | 348.0 |
| 20260509222400 | 75 | 50 | 5.0 | 6.0 | 0.00 | 0.09 | 0.09 | 90 | 348.1 |
| 20260509221855 | 75 | 91 | 2.0 | 6.0 | 0.00 | 0.09 | 0.09 | 90 | 348.0 |
| 20260509221353 | 75 | 58 | 6.0 | 9.0 | 0.00 | 0.09 | 0.09 | 90 | 347.9 |
| 20260509220849 | 75 | 78 | 2.0 | 7.0 | 0.00 | 0.09 | 0.09 | 90 | 348.0 |
| 20260509220345 | 75 | 66 | 7.0 | 9.0 | 0.00 | 0.09 | 0.09 | 90 | 348.0 |
| 20260509215840 | 75 | 66 | 6.0 | 8.0 | 0.00 | 0.09 | 0.09 | 90 | 348.1 |
| 20260509215337 | 75 | 58 | 6.0 | 6.0 | 0.00 | 0.09 | 0.09 | 91 | 348.1 |
| 20260509214834 | 75 | 78 | 3.0 | 6.0 | 0.00 | 0.09 | 0.09 | 91 | 348.0 |
| 20260509214332 | 75 | 58 | 5.0 | 7.0 | 0.00 | 0.09 | 0.09 | 91 | 348.1 |
| 20260509213829 | 74 | 73 | 5.0 | 7.0 | 0.00 | 0.09 | 0.09 | 91 | 348.1 |
| 20260509213324 | 75 | 56 | 5.0 | 8.0 | 0.00 | 0.09 | 0.09 | 91 | 348.0 |
| 20260509212822 | 75 | 77 | 4.0 | 9.0 | 0.00 | 0.09 | 0.09 | 91 | 348.2 |
| 20260509212320 | 75 | 58 | 7.0 | 8.0 | 0.00 | 0.09 | 0.09 | 91 | 347.9 |
| 20260509211815 | 75 | 68 | 5.0 | 8.0 | 0.00 | 0.09 | 0.09 | 91 | 348.0 |
| 20260509211311 | 75 | 71 | 2.0 | 6.0 | 0.00 | 0.09 | 0.09 | 90 | 347.9 |
| 20260509210808 | 75 | 78 | 3.0 | 9.0 | 0.00 | 0.09 | 0.09 | 91 | 347.9 |
| 20260509210306 | 75 | 60 | 3.0 | 3.0 | 0.00 | 0.09 | 0.09 | 90 | 348.2 |
| 20260509205804 | 75 | 88 | 2.0 | 6.0 | 0.02 | 0.09 | 0.09 | 90 | 347.9 |
| 20260509205300 | 76 | 56 | 1.0 | 7.0 | 0.02 | 0.09 | 0.09 | 90 | 348.2 |
| 20260509204756 | 76 | 52 | 2.0 | 9.0 | 0.00 | 0.09 | 0.09 | 90 | 348.1 |
| 20260509204252 | 78 | 58 | 4.0 | 6.0 | 0.00 | 0.09 | 0.09 | 90 | 348.0 |
| 20260509203748 | 78 | 49 | 3.0 | 9.0 | 0.00 | 0.09 | 0.09 | 90 | 347.9 |
| 20260509203246 | 78 | 71 | 7.0 | 9.0 | 0.12 | 0.09 | 0.09 | 90 | 348.1 |
| 20260509202742 | 78 | 59 | 7.0 | 10.0 | 0.12 | 0.09 | 0.09 | 90 | 347.9 |
| 20260509202239 | 78 | 77 | 10.0 | 11.0 | 0.00 | 0.07 | 0.07 | 90 | 348.0 |
| 20260509201738 | 78 | 58 | 6.0 | 9.0 | 0.02 | 0.07 | 0.07 | 89 | 347.9 |
| 20260509201235 | 78 | 53 | 4.0 | 5.0 | 0.02 | 0.07 | 0.07 | 89 | 347.9 |
| 20260509200732 | 78 | 95 | 4.0 | 4.0 | 0.02 | 0.06 | 0.06 | 89 | 348.0 |
| 20260509200227 | 78 | 94 | 1.0 | 4.0 | 0.07 | 0.06 | 0.06 | 89 | 348.0 |
| 20260509195723 | 78 | 73 | 3.0 | 6.0 | 0.14 | 0.06 | 0.06 | 89 | 347.9 |
| 20260509195219 | 78 | 56 | 5.0 | 6.0 | 0.24 | 0.05 | 0.05 | 89 | 347.9 |
| 20260509194719 | 79 | 71 | 6.0 | 8.0 | 0.17 | 0.03 | 0.03 | 88 | 347.8 |
| 20260509194215 | 79 | 81 | 5.0 | 7.0 | 0.05 | 0.01 | 0.01 | 88 | 348.0 |
| 20260509193712 | 79 | 87 | 5.0 | 9.0 | 0.00 | 0.00 | 0.00 | 88 | 347.9 |
| 20260509193212 | 79 | 96 | 9.0 | 9.0 | 0.00 | 0.00 | 0.00 | 87 | 348.0 |
| 20260509192709 | 79 | 86 | 6.0 | 10.0 | 0.00 | 0.00 | 0.00 | 87 | 348.0 |
| 20260509192204 | 80 | 88 | 8.0 | 9.0 | 0.00 | 0.00 | 0.00 | 87 | 347.9 |
| 20260509191659 | 80 | 78 | 7.0 | 10.0 | 0.00 | 0.00 | 0.00 | 87 | 347.9 |
| 20260509191156 | 80 | 73 | 11.0 | 11.0 | 0.00 | 0.00 | 0.00 | 86 | 347.9 |
| 20260509190652 | 80 | 72 | 10.0 | 12.0 | 0.00 | 0.00 | 0.00 | 86 | 347.9 |
| 20260509190149 | 80 | 76 | 10.0 | 11.0 | 0.00 | 0.00 | 0.00 | 85 | 347.9 |
| 20260509185647 | 81 | 91 | 9.0 | 10.0 | 0.00 | 0.00 | 0.00 | 85 | 347.9 |
| 20260509185148 | 81 | 83 | 9.0 | 11.0 | 0.00 | 0.00 | 0.00 | 84 | 347.6 |
| 20260509184646 | 81 | 77 | 9.0 | 11.0 | 0.00 | 0.00 | 0.00 | 84 | 347.6 |
| 20260509184142 | 81 | 79 | 6.0 | 9.0 | 0.00 | 0.00 | 0.00 | 84 | 347.8 |
| 20260509183639 | 81 | 70 | 8.0 | 11.0 | 0.00 | 0.00 | 0.00 | 83 | 347.7 |
| 20260509183134 | 82 | 74 | 7.0 | 9.0 | 0.00 | 0.00 | 0.00 | 83 | 347.7 |
| 20260509182630 | 82 | 76 | 8.0 | 10.0 | 0.00 | 0.00 | 0.00 | 83 | 347.8 |
| 20260509182127 | 82 | 87 | 8.0 | 10.0 | 0.00 | 0.00 | 0.00 | 84 | 347.9 |
| 20260509181625 | 82 | 82 | 7.0 | 10.0 | 0.00 | 0.00 | 0.00 | 84 | 347.8 |
| 20260509181123 | 82 | 85 | 7.0 | 8.0 | 0.00 | 0.00 | 0.00 | 83 | 347.8 |
| 20260509180619 | 82 | 103 | 5.0 | 7.0 | 0.00 | 0.00 | 0.00 | 82 | 347.9 |
| 20260509180116 | 81 | 88 | 6.0 | 8.0 | 0.00 | 0.00 | 0.00 | 83 | 347.9 |
| 20260509175611 | 81 | 103 | 4.0 | 6.0 | 0.00 | 0.00 | 0.00 | 83 | 347.7 |
| 20260509175109 | 81 | 104 | 5.0 | 6.0 | 0.00 | 0.00 | 0.00 | 83 | 347.7 |
| 20260509174605 | 81 | 50 | 4.0 | 5.0 | 0.00 | 0.00 | 0.00 | 84 | 347.7 |
| 20260509174100 | 81 | 104 | 6.0 | 6.0 | 0.00 | 0.00 | 0.00 | 83 | 347.9 |
| 20260509173555 | 82 | 108 | 4.0 | 4.0 | 0.00 | 0.00 | 0.00 | 83 | 347.7 |
| 20260509173052 | 81 | 95 | 6.0 | 7.0 | 0.00 | 0.00 | 0.00 | 83 | 347.8 |
| 20260509172549 | 81 | 84 | 6.0 | 7.0 | 0.00 | 0.00 | 0.00 | 84 | 347.8 |
| 20260509172044 | 80 | 88 | 6.0 | 7.0 | 0.00 | 0.00 | 0.00 | 83 | 348.0 |
| 20260509171540 | 81 | 104 | 7.0 | 8.0 | 0.00 | 0.00 | 0.00 | 82 | 347.9 |
| 20260509171037 | 82 | 101 | 4.0 | 5.0 | 0.00 | 0.00 | 0.00 | 82 | 347.9 |
| 20260509170533 | 82 | 67 | 5.0 | 8.0 | 0.00 | 0.00 | 0.00 | 82 | 347.8 |
| 20260509170029 | 83 | 78 | 4.0 | 8.0 | 0.00 | 0.00 | 0.00 | 81 | 347.8 |
| 20260509165528 | 83 | 85 | 5.0 | 7.0 | 0.00 | 0.00 | 0.00 | 80 | 347.8 |
| 20260509165023 | 82 | 96 | 4.0 | 6.0 | 0.00 | 0.00 | 0.00 | 79 | 347.7 |
| 20260509164520 | 83 | 105 | 4.0 | 4.0 | 0.00 | 0.00 | 0.00 | 78 | 347.7 |
| 20260509164015 | 84 | 102 | 5.0 | 5.0 | 0.00 | 0.00 | 0.00 | 78 | 348.0 |
| 20260509163514 | 83 | 62 | 2.0 | 4.0 | 0.00 | 0.00 | 0.00 | 78 | 347.8 |
| 20260509163014 | 82 | 282 | 1.0 | 2.0 | 0.00 | 0.00 | 0.00 | 78 | 347.8 |
| 20260509162512 | 82 | 62 | 2.0 | 4.0 | 0.00 | 0.00 | 0.00 | 79 | 347.8 |
| 20260509162007 | 82 | 64 | 2.0 | 4.0 | 0.00 | 0.00 | 0.00 | 81 | 347.7 |
| 20260509161505 | 82 | 45 | 1.0 | 2.0 | 0.00 | 0.00 | 0.00 | 81 | 347.8 |
| 20260509160959 | 82 | 326 | 2.0 | 4.0 | 0.00 | 0.00 | 0.00 | 82 | 347.9 |